Weather History for KCEY - March, 2014

Change the Weather History Date:

Wednesday, March 12, 2014

  Actual Average (KPAH) Record (KPAH)
Temperature  
Mean Temperature 50 °F 47 °F  
Max Temperature 64 °F 58 °F 82 °F (1967)
Min Temperature 35 °F 37 °F 12 °F (1998)
Degree Days  
Heating Degree Days 16 18  
Month to date heating degree days 237  
Since 1 July heating degree days 3533  
Cooling Degree Days 0 0  
Month to date cooling degree days 0  
Year to date cooling degree days 0  
Moisture  
Dew Point 35 °F    
Average Humidity 68    
Maximum Humidity 88    
Minimum Humidity 46    
Precipitation  
Precipitation 0.00 in 0.13 in 2.12 in (1986)
Month to date precipitation 1.43  
Year to date precipitation 9.02  
Snow  
Snow 0.00 in 0.00 in 0.40 in (1968)
Month to date snowfall 0.4  
Since 1 July snowfall 8.9  
Snow Depth -    
Sea Level Pressure  
Sea Level Pressure 29.84 in    
Wind  
Wind Speed 16 mph (NW)    
Max Wind Speed 31 mph    
Max Gust Speed 43 mph    
Visibility 10 miles    
Events      
T = Trace of Precipitation, MM = Missing Value Source: NWS Daily Summary

Daily Weather History Graph

Daily Weather History Graph

Search for Another Location

Airport or City:

Trip Planner

Search our weather history database for the weather conditions in past years. The results will help you decide how hot, cold, wet, or windy it might be!

Date:

Astronomy

Mar. 12, 2014 Rise Set
Actual Time 7:08 AM CDT 6:58 PM CDT
Civil Twilight 6:42 AM CDT 7:23 PM CDT
Nautical Twilight 6:13 AM CDT 7:53 PM CDT
Astronomical Twilight 5:42 AM CDT 8:24 PM CDT
Moon 3:33 PM CDT (3/12) 4:35 AM CDT (3/12)
Length of Visible Light 12h 41m
Length of Day
11h 49m
Waxing Gibbous, 85% of the Moon is Illuminated
Mar 12
Waxing Gibbous
Mar 16
Full
Mar 23
Last Quarter
Mar 30
New
Apr 7
First Quarter

Hourly Weather History & Observations

Time (CDT) Temp. Windchill Dew Point Humidity Pressure Visibility Wind Dir Wind Speed Gust Speed Precip Events Conditions
12:15 AM 64.4 °F - 55.4 °F 73% 29.53 in 10.0 mi SSW 12.7 mph 18.4 mph N/A   Overcast
12:35 AM 64.4 °F - 55.4 °F 73% 29.53 in 10.0 mi SW 11.5 mph 20.7 mph N/A   Mostly Cloudy
12:55 AM 64.4 °F - 55.4 °F 73% 29.52 in 10.0 mi SW 10.4 mph 20.7 mph N/A   Mostly Cloudy
1:15 AM 64.4 °F - 57.2 °F 77% 29.51 in 10.0 mi SW 8.1 mph 16.1 mph N/A   Mostly Cloudy
1:35 AM 62.6 °F - 57.2 °F 82% 29.51 in 10.0 mi SSW 9.2 mph 17.3 mph N/A   Overcast
1:55 AM 64.4 °F - 57.2 °F 77% 29.51 in 10.0 mi SW 12.7 mph 20.7 mph N/A   Overcast
2:15 AM 64.4 °F - 57.2 °F 77% 29.51 in 10.0 mi SW 13.8 mph 24.2 mph N/A   Overcast
2:35 AM 62.6 °F - 57.2 °F 82% 29.50 in 10.0 mi SW 16.1 mph 20.7 mph N/A   Overcast
2:55 AM 62.6 °F - 57.2 °F 82% 29.50 in 10.0 mi SW 13.8 mph 23.0 mph N/A   Overcast
3:15 AM 62.6 °F - 57.2 °F 82% 29.49 in 10.0 mi SW 19.6 mph 28.8 mph N/A   Overcast
3:35 AM 62.6 °F - 57.2 °F 82% 29.48 in 10.0 mi SW 17.3 mph 25.3 mph N/A   Overcast
3:55 AM 62.6 °F - 57.2 °F 82% 29.47 in 10.0 mi SW 15.0 mph 26.5 mph N/A   Overcast
4:15 AM 62.6 °F - 57.2 °F 82% 29.46 in 10.0 mi SW 16.1 mph 25.3 mph N/A   Overcast
4:35 AM 62.6 °F - 57.2 °F 82% 29.46 in 6.0 mi SW 17.3 mph 29.9 mph N/A   Overcast
4:55 AM 60.8 °F - 57.2 °F 88% 29.46 in 10.0 mi WSW 23.0 mph 32.2 mph N/A   Overcast
5:15 AM 60.8 °F - 57.2 °F 88% 29.47 in 10.0 mi WSW 19.6 mph 31.1 mph N/A   Overcast
5:35 AM 48.2 °F - 44.6 °F 87% 29.53 in 10.0 mi NW 31.1 mph 38.0 mph N/A   Overcast
5:55 AM 46.4 °F 37.7 °F 41.0 °F 81% 29.57 in 10.0 mi NW 26.5 mph 33.4 mph N/A   Overcast
6:15 AM 44.6 °F 34.9 °F 39.2 °F 81% 29.59 in 10.0 mi NW 28.8 mph 38.0 mph N/A   Overcast
6:35 AM 42.8 °F 33.3 °F 39.2 °F 87% 29.62 in 10.0 mi NW 24.2 mph 33.4 mph N/A   Overcast
6:55 AM 41.0 °F 30.5 °F 37.4 °F 87% 29.65 in 10.0 mi NW 26.5 mph 35.7 mph N/A   Overcast
7:15 AM 41.0 °F 30.7 °F 35.6 °F 81% 29.66 in 10.0 mi NW 25.3 mph 42.6 mph N/A   Overcast
7:35 AM 41.0 °F 29.8 °F 35.6 °F 81% 29.69 in 10.0 mi NNW 29.9 mph 39.1 mph N/A   Overcast
7:55 AM 41.0 °F 31.6 °F 33.8 °F 76% 29.71 in 10.0 mi NNW 20.7 mph 38.0 mph N/A   Overcast
8:15 AM 39.2 °F 30.2 °F 33.8 °F 81% 29.73 in 10.0 mi NNW 17.3 mph 35.7 mph N/A   Overcast
8:35 AM 39.2 °F 29.0 °F 32.0 °F 75% 29.75 in 10.0 mi NNW 21.9 mph 29.9 mph N/A   Overcast
8:55 AM 39.2 °F 29.3 °F 32.0 °F 75% 29.78 in 10.0 mi NNW 20.7 mph 34.5 mph N/A   Overcast
9:15 AM 39.2 °F 28.3 °F 32.0 °F 75% 29.80 in 10.0 mi NNW 25.3 mph 34.5 mph N/A   Overcast
9:35 AM 39.2 °F 28.5 °F 32.0 °F 75% 29.81 in 10.0 mi NNW 24.2 mph 33.4 mph N/A   Overcast
9:55 AM 41.0 °F 31.9 °F 32.0 °F 70% 29.83 in 10.0 mi NNW 19.6 mph 33.4 mph N/A   Overcast
10:15 AM 41.0 °F 31.6 °F 32.0 °F 70% 29.84 in 10.0 mi NNW 20.7 mph 31.1 mph N/A   Overcast
10:35 AM 41.0 °F 31.6 °F 32.0 °F 70% 29.86 in 10.0 mi NNW 20.7 mph 36.8 mph N/A   Overcast
10:55 AM 41.0 °F 30.7 °F 32.0 °F 70% 29.87 in 10.0 mi NNW 25.3 mph 35.7 mph N/A   Overcast
11:15 AM 41.0 °F 30.9 °F 32.0 °F 70% 29.89 in 10.0 mi NNW 24.2 mph 32.2 mph N/A   Overcast
11:35 AM 41.0 °F 32.8 °F 32.0 °F 70% 29.90 in 10.0 mi NNW 16.1 mph 31.1 mph N/A   Overcast
11:55 AM 41.0 °F 32.5 °F 32.0 °F 70% 29.91 in 10.0 mi NW 17.3 mph 29.9 mph N/A   Overcast
12:15 PM 41.0 °F 32.8 °F 32.0 °F 70% 29.92 in 10.0 mi NW 16.1 mph 26.5 mph N/A   Overcast
12:35 PM 41.0 °F 32.2 °F 32.0 °F 70% 29.93 in 10.0 mi NNW 18.4 mph 26.5 mph N/A   Overcast
12:55 PM 41.0 °F 31.4 °F 32.0 °F 70% 29.95 in 10.0 mi NNW 21.9 mph 29.9 mph N/A   Overcast
1:15 PM 41.0 °F 32.2 °F 32.0 °F 70% 29.95 in 10.0 mi NNW 18.4 mph 26.5 mph N/A   Overcast
1:35 PM 41.0 °F 33.1 °F 30.2 °F 65% 29.96 in 10.0 mi NW 15.0 mph 27.6 mph N/A   Overcast
1:55 PM 39.2 °F 29.6 °F 32.0 °F 75% 29.96 in 10.0 mi NW 19.6 mph 27.6 mph N/A   Overcast
2:15 PM 39.2 °F 29.6 °F 30.2 °F 70% 29.97 in 10.0 mi NNW 19.6 mph 27.6 mph N/A   Overcast
2:35 PM 41.0 °F 33.1 °F 30.2 °F 65% 29.98 in 10.0 mi NW 15.0 mph 25.3 mph N/A   Overcast
2:55 PM 41.0 °F 31.4 °F 30.2 °F 65% 29.99 in 10.0 mi NNW 21.9 mph 28.8 mph N/A   Overcast
3:15 PM 41.0 °F 31.6 °F 28.4 °F 61% 30.00 in 10.0 mi NNW 20.7 mph 26.5 mph N/A   Overcast
3:35 PM 41.0 °F 32.5 °F 28.4 °F 61% 30.00 in 10.0 mi NNW 17.3 mph 24.2 mph N/A   Overcast
3:55 PM 41.0 °F 32.5 °F 28.4 °F 61% 30.01 in 10.0 mi NNW 17.3 mph 26.5 mph N/A   Overcast
4:15 PM 41.0 °F 32.5 °F 26.6 °F 57% 30.02 in 10.0 mi NNW 17.3 mph 26.5 mph N/A   Mostly Cloudy
4:35 PM 42.8 °F 35.1 °F 26.6 °F 53% 30.02 in 10.0 mi NNW 16.1 mph 26.5 mph N/A   Scattered Clouds
4:55 PM 44.6 °F 37.2 °F 26.6 °F 49% 30.02 in 10.0 mi NNW 17.3 mph 26.5 mph N/A   Mostly Cloudy
5:15 PM 44.6 °F 36.6 °F 24.8 °F 46% 30.02 in 10.0 mi North 19.6 mph 26.5 mph N/A   Overcast
5:35 PM 41.0 °F 32.8 °F 23.0 °F 49% 30.03 in 10.0 mi NNW 16.1 mph 24.2 mph N/A   Scattered Clouds
5:55 PM 41.0 °F 33.9 °F 23.0 °F 49% 30.04 in 10.0 mi NNW 12.7 mph 21.9 mph N/A   Partly Cloudy
6:15 PM 41.0 °F 33.5 °F 23.0 °F 49% 30.05 in 10.0 mi North 13.8 mph 23.0 mph N/A   Mostly Cloudy
6:35 PM 41.0 °F 34.3 °F 23.0 °F 49% 30.05 in 10.0 mi NNW 11.5 mph 16.1 mph N/A   Mostly Cloudy
6:55 PM 41.0 °F 35.8 °F 23.0 °F 49% 30.06 in 10.0 mi NNW 8.1 mph - N/A   Mostly Cloudy
7:15 PM 39.2 °F 34.2 °F 23.0 °F 52% 30.06 in 10.0 mi NNW 6.9 mph - N/A   Overcast
7:35 PM 39.2 °F 35.0 °F 21.2 °F 49% 30.06 in 10.0 mi NNW 5.8 mph - N/A   Overcast
7:55 PM 37.4 °F 34.9 °F 23.0 °F 56% 30.08 in 10.0 mi NNW 3.5 mph - N/A   Overcast
8:15 PM 37.4 °F 34.9 °F 23.0 °F 56% 30.08 in 10.0 mi NW 3.5 mph - N/A   Overcast
8:35 PM 37.4 °F 32.8 °F 23.0 °F 56% 30.09 in 10.0 mi NW 5.8 mph - N/A   Overcast
8:55 PM 35.6 °F 30.7 °F 23.0 °F 60% 30.10 in 10.0 mi NW 5.8 mph - N/A   Partly Cloudy
9:15 PM 37.4 °F 30.8 °F 23.0 °F 56% 30.11 in 10.0 mi NW 9.2 mph - N/A   Scattered Clouds
9:35 PM 37.4 °F 30.8 °F 23.0 °F 56% 30.11 in 10.0 mi NNW 9.2 mph - N/A   Overcast
9:55 PM 37.4 °F 31.4 °F 23.0 °F 56% 30.12 in 10.0 mi NNW 8.1 mph - N/A   Overcast
10:15 PM 37.4 °F 30.8 °F 23.0 °F 56% 30.12 in 10.0 mi North 9.2 mph - N/A   Mostly Cloudy
10:35 PM 37.4 °F 29.8 °F 23.0 °F 56% 30.13 in 10.0 mi NNW 11.5 mph - N/A   Mostly Cloudy
10:55 PM 37.4 °F 31.4 °F 24.8 °F 60% 30.13 in 10.0 mi North 8.1 mph - N/A   Overcast
11:15 PM 35.6 °F 28.0 °F 24.8 °F 65% 30.13 in 10.0 mi North 10.4 mph - N/A   Scattered Clouds
11:35 PM 35.6 °F 28.0 °F 23.0 °F 60% 30.14 in 10.0 mi NNW 10.4 mph 17.3 mph N/A   Clear
11:55 PM 35.6 °F 29.2 °F 23.0 °F 60% 30.14 in 10.0 mi North 8.1 mph - N/A   Clear